Location: Decatur Area Astronomy Club
(40.0275°N, 88.7810°W)
Time: 06:16:49
(UTC-06:00)

Amateur Radio Satellites - All Passes

Search period start: 21 November 2017 05:46
Search period end: 22 November 2017 05:46
Location: Decatur Area Astronomy Club, 40.0275°N, 88.7810°W

Satellite Date Start Highest point End Downlink Frequencies (MHz)
Time Altitude Azimuth
AO-85 21 Nov 05:48:31 05:49:59 12° 321° (NW) 05:51:29 145.980
XW-2C 21 Nov 05:49:19 05:53:05 55° 100° (E) 05:56:49 145.795 - 145.815
LilacSat-2 21 Nov 05:51:07 05:54:56 64° 101° (E) 05:58:45 437.200
CUTE 1.7 + AOD 2 21 Nov 05:52:08 05:54:15 13° 91° (E) 05:56:22 437.475
CUTE-I 21 Nov 05:53:14 05:58:24 46° 99° (E) 06:03:30 437.470
XW-2F 21 Nov 06:00:06 06:03:54 71° 101° (ESE) 06:07:41 145.980 - 146.000
SEEDS 21 Nov 06:22:09 06:25:03 18° 93° (E) 06:27:57 437.485
KAITUO 1B 21 Nov 06:28:13 06:31:57 64° 284° (WNW) 06:35:42 145.475/437.950
FO-29 21 Nov 06:34:05 06:39:39 28° 61° (ENE) 06:45:42 435.910
XW-2D 21 Nov 06:43:19 06:46:38 29° 289° (WNW) 06:49:56 145.860 - 145.880
DOVE 4 21 Nov 06:44:53 06:46:27 11° 301° (WNW) 06:47:58 437.250
CUBEBUG 2 21 Nov 06:46:02 06:49:43 30° 96° (E) 06:53:21 437.445
STRAND 1 21 Nov 06:58:02 07:03:05 56° 260° (W) 07:08:10 437.568
XW-2B 21 Nov 06:58:31 07:01:23 21° 291° (WNW) 07:04:15 145.730 - 145.750
HO-68 21 Nov 07:02:23 07:09:35 72° 104° (ESE) 07:16:44 435.675
XW-2A 21 Nov 07:03:14 07:05:51 21° 96° (E) 07:08:28 145.665 - 145.685
NUDT-PHONESAT 21 Nov 07:13:52 07:16:31 19° 291° (WNW) 07:19:09 437.300
SO-50 21 Nov 07:20:03 07:24:11 32° 246° (WSW) 07:28:21 436.795
YUBILEINY 21 Nov 07:20:27 07:27:06 24° 294° (WNW) 07:33:49 435.215
XW-2C 21 Nov 07:25:57 07:26:45 11° 296° (WNW) 07:27:33 145.795 - 145.815
CUTE 1.7 + AOD 2 21 Nov 07:26:12 07:30:20 49° 286° (WNW) 07:34:27 437.475
ZACube-1 21 Nov 07:33:20 07:36:58 29° 96° (E) 07:40:38 437.345
CUTE-I 21 Nov 07:33:59 07:38:06 23° 296° (WNW) 07:42:14 437.470
UWE-3 21 Nov 07:42:37 07:46:46 77° 103° (ESE) 07:50:54 435.000/436.395/437.385
SEEDS 21 Nov 07:56:55 08:00:50 37° 288° (WNW) 08:04:43 437.485
PCSat 21 Nov 08:01:21 08:05:28 22° 47° (NE) 08:09:35 145.827
AAUSAT CUBESAT 2 21 Nov 08:03:29 08:07:40 73° 283° (WNW) 08:11:49 437.432
FO-29 21 Nov 08:17:44 08:24:07 56° 261° (W) 08:31:21 435.910
UNISAT 6 21 Nov 08:22:19 08:26:31 37° 71° (ENE) 08:30:39 437.425
CUBEBUG 2 21 Nov 08:23:02 08:26:09 21° 292° (WNW) 08:29:14 437.445
AO-73 21 Nov 08:23:59 08:28:09 79° 282° (WNW) 08:32:18 145.935
TIGRISAT 21 Nov 08:26:39 08:30:52 37° 71° (ENE) 08:35:00 435.000
FALCONSAT 3 21 Nov 08:30:02 08:31:08 11° 152° (SSE) 08:32:15 435.103
DELFI C3 21 Nov 08:35:09 08:37:44 17° 93° (E) 08:40:19 145.870
XW-2A 21 Nov 08:35:59 08:38:25 19° 290° (WNW) 08:40:51 145.665 - 145.685
Oscar 11 21 Nov 08:40:22 08:44:42 79° 284° (WNW) 08:49:02 .
HO-68 21 Nov 08:51:18 08:56:37 23° 302° (WNW) 09:01:55 435.675
ZACube-1 21 Nov 09:09:56 09:13:05 21° 292° (WNW) 09:16:14 437.345
PRISM 21 Nov 09:20:55 09:24:56 55° 74° (ENE) 09:29:01 437.425
EO-88 21 Nov 09:37:35 09:41:05 43° 99° (E) 09:44:34 145.990 - 145.960
Max Valier Satellite 21 Nov 09:39:17 09:42:56 70° 101° (E) 09:46:36 145.860
AIST 2D 21 Nov 09:42:29 09:45:16 23° 71° (ENE) 09:48:05 435.315
PCSat 21 Nov 09:43:56 09:49:17 61° 246° (WSW) 09:54:35 145.827
EO-79 21 Nov 09:48:01 09:49:35 12° 63° (ENE) 09:51:09 145.935-145.965
NANOSAT C BR1 21 Nov 09:51:28 09:52:46 11° 63° (ENE) 09:54:06 145.865
UNISAT 6 21 Nov 09:59:55 10:03:17 20° 266° (W) 10:06:39 437.425
POLYITAN 1 21 Nov 10:02:02 10:04:47 17° 66° (ENE) 10:07:31 437.675
TIGRISAT 21 Nov 10:04:17 10:07:37 20° 266° (W) 10:10:56 435.000
FALCONSAT 3 21 Nov 10:06:21 10:09:37 29° 166° (SSE) 10:12:52 435.103
DELFI C3 21 Nov 10:08:56 10:12:34 34° 289° (WNW) 10:16:12 145.870
QB50P2 21 Nov 10:24:08 10:27:55 32° 70° (ENE) 10:31:42 145.880/145.840
BEESAT 3 21 Nov 10:24:21 10:27:25 21° 47° (NE) 10:30:25 437.485
AO-85 21 Nov 10:58:40 10:59:10 10° 38° (NE) 10:59:40 145.980
PRISM 21 Nov 10:59:14 11:00:31 11° 269° (W) 11:01:49 437.425
SPROUT 21 Nov 11:11:38 11:12:59 11° 90° (E) 11:14:19 437.525
EO-88 21 Nov 11:12:55 11:14:19 12° 294° (WNW) 11:15:42 145.990 - 145.960
DUCHIFAT 1 21 Nov 11:13:01 11:17:14 82° 76° (ENE) 11:21:28 145.980
AIST 2D 21 Nov 11:15:59 11:18:24 18° 266° (W) 11:20:50 435.315
EO-79 21 Nov 11:20:35 11:24:48 62° 259° (W) 11:29:00 145.935-145.965
NANOSAT C BR1 21 Nov 11:23:43 11:27:55 65° 259° (W) 11:32:07 145.865
ESTCUBE 1 21 Nov 11:29:21 11:33:55 84° 102° (ESE) 11:38:27 437.505/2401.250
LO-87 21 Nov 11:35:01 11:38:25 44° 286° (WNW) 11:41:47 145.935 - 145.965
BEESAT 2 21 Nov 11:35:43 11:39:23 32° 51° (NE) 11:43:00 435.950
POLYITAN 1 21 Nov 11:36:13 11:40:13 40° 262° (W) 11:44:14 437.675
FALCONSAT 3 21 Nov 11:44:52 11:48:21 40° 182° (S) 11:51:50 435.103
VELOX 1 21 Nov 11:49:56 11:53:15 20° 94° (E) 11:56:33 145.980
QB50P2 21 Nov 12:00:34 12:03:44 20° 266° (W) 12:06:54 145.880/145.840
BEESAT 3 21 Nov 12:01:26 12:05:01 35° 245° (WSW) 12:08:33 437.485
BUGSAT 1 21 Nov 12:04:51 12:09:02 76° 76° (ENE) 12:13:13 437.445
Oscar 19 21 Nov 12:07:35 12:12:24 44° 71° (ENE) 12:17:15 437.125/150
AO-7 21 Nov 12:18:43 12:23:01 15° 47° (NE) 12:27:19 .
Gurwin Techsat 1B 21 Nov 12:34:06 12:39:17 57° 72° (ENE) 12:44:29 435.225
DX 1 21 Nov 12:35:39 12:37:54 14° 92° (E) 12:40:07 434.975-435.025
AO-85 21 Nov 12:35:47 12:40:27 59° 56° (NE) 12:45:26 145.980
SPROUT 21 Nov 12:45:02 12:49:13 57° 286° (WNW) 12:53:21 437.525
ESTCUBE 1 21 Nov 13:09:45 13:10:00 10° 299° (WNW) 13:10:16 437.505/2401.250
BEESAT 2 21 Nov 13:13:49 13:16:54 21° 248° (WSW) 13:19:56 435.950
UKube-1 21 Nov 13:16:11 13:19:41 24° 96° (E) 13:23:10 .
M-CUBED/EXP-1 PRIME 21 Nov 13:16:28 13:19:52 47° 68° (ENE) 13:23:34 437.505
O/OREOS (USA 219) 21 Nov 13:18:32 13:23:08 80° 292° (WNW) 13:27:45 437.305
50 SAT 21 Nov 13:18:38 13:21:46 46° 100° (E) 13:24:51 437.505
FALCONSAT 3 21 Nov 13:23:59 13:27:04 25° 197° (SSW) 13:30:08 435.103
VELOX 1 21 Nov 13:25:42 13:29:46 35° 290° (WNW) 13:33:47 145.980
Oscar 19 21 Nov 13:48:05 13:51:54 21° 266° (W) 13:55:45 437.125/150
ITAMSAT 1 21 Nov 14:00:54 14:05:27 32° 67° (ENE) 14:10:02 435.822/435.867
AO-7 21 Nov 14:06:04 14:14:15 68° 68° (ENE) 14:22:29 .
DX 1 21 Nov 14:10:05 14:14:21 51° 287° (WNW) 14:18:34 434.975-435.025
NO-84 21 Nov 14:11:28 14:14:44 34° 129° (SE) 14:18:16 435.350 FM
Gurwin Techsat 1B 21 Nov 14:16:07 14:19:34 17° 268° (W) 14:23:02 435.225
AO-85 21 Nov 14:17:23 14:20:31 17° 250° (WSW) 14:23:46 145.980
BEESAT 21 Nov 14:17:48 14:20:40 16° 92° (E) 14:23:31 436.000
ITUPSAT 1 21 Nov 14:27:14 14:30:40 19° 94° (E) 14:34:04 437.325
DOVE 4 21 Nov 14:35:11 14:36:23 11° 59° (ENE) 14:37:35 437.250
MOZHAYETS 4 21 Nov 14:36:15 14:40:23 33° 97° (E) 14:44:31
CUBESAT XI-V 21 Nov 14:51:24 14:52:14 10° 89° (E) 14:53:04 437.345
UKube-1 21 Nov 14:51:55 14:55:39 29° 291° (WNW) 14:59:23 .
M-CUBED/EXP-1 PRIME 21 Nov 14:54:11 14:54:40 10° 266° (W) 14:55:09 437.505
YUBILEINY 21 Nov 15:32:05 15:40:03 36° 71° (ENE) 15:47:58 435.215
ITAMSAT 1 21 Nov 15:40:14 15:44:50 31° 263° (W) 15:49:28 435.822/435.867
NO-84 21 Nov 15:48:43 15:52:05 30° 328° (NNW) 15:55:41 435.350 FM
BEESAT 21 Nov 15:54:06 15:58:43 51° 288° (WNW) 16:03:18 436.000
AO-7 21 Nov 16:01:01 16:07:33 26° 265° (W) 16:14:10 .
ITUPSAT 1 21 Nov 16:04:10 16:08:38 42° 289° (WNW) 16:13:06 437.325
XW-2B 21 Nov 16:06:20 16:07:47 12° 65° (ENE) 16:09:14 145.730 - 145.750
DOVE 4 21 Nov 16:08:06 16:13:07 83° 76° (ENE) 16:18:23 437.250
MOZHAYETS 4 21 Nov 16:13:45 16:17:21 23° 293° (WNW) 16:20:58
NUDT-PHONESAT 21 Nov 16:19:43 16:21:00 12° 65° (ENE) 16:22:17 437.300
CUBESAT XI-V 21 Nov 16:25:23 16:30:05 74° 285° (WNW) 16:34:46 437.345
KKS-1 21 Nov 16:25:52 16:29:28 23° 95° (E) 16:33:01 437.445
XW-2C 21 Nov 16:30:12 16:33:12 23° 70° (ENE) 16:36:13 145.795 - 145.815
LilacSat-2 21 Nov 16:32:29 16:35:40 27° 71° (ENE) 16:38:52 437.200
XW-2F 21 Nov 16:40:16 16:43:28 28° 71° (ENE) 16:46:42 145.980 - 146.000
STARS 21 Nov 16:49:35 16:52:20 16° 93° (E) 16:55:04 437.465
RS-15 21 Nov 16:57:44 17:07:43 31° 103° (ESE) 17:17:42 29.354- 29.394
KAITUO 1B 21 Nov 17:07:01 17:10:33 47° 74° (ENE) 17:14:07 145.475/437.950
CUTE-I 21 Nov 17:14:13 17:19:33 70° 74° (ENE) 17:24:55 437.470
SEEDS 21 Nov 17:14:35 17:16:06 12° 63° (ENE) 17:17:36 437.485
XW-2D 21 Nov 17:22:56 17:26:39 69° 260° (W) 17:30:23 145.860 - 145.880
YUBILEINY 21 Nov 17:28:39 17:37:03 50° 271° (W) 17:45:24 435.215
NO-84 21 Nov 17:29:08 17:30:33 12° 348° (NNW) 17:32:01 435.350 FM
HO-68 21 Nov 17:29:58 17:36:49 49° 67° (ENE) 17:43:41 435.675
XW-2B 21 Nov 17:37:57 17:41:31 45° 261° (W) 17:45:08 145.730 - 145.750
CUBEBUG 2 21 Nov 17:43:12 17:46:58 26° 69° (ENE) 17:50:40 437.445
DOVE 4 21 Nov 17:50:10 17:51:27 11° 273° (W) 17:52:44 437.250
NUDT-PHONESAT 21 Nov 17:50:56 17:54:25 44° 261° (W) 17:57:56 437.300
KKS-1 21 Nov 18:02:04 18:06:01 31° 291° (WNW) 18:09:54 437.445
XW-2C 21 Nov 18:04:25 18:07:18 21° 265° (W) 18:10:12 145.795 - 145.815
LilacSat-2 21 Nov 18:07:16 18:09:56 18° 266° (W) 18:12:38 437.200
XW-2F 21 Nov 18:15:07 18:17:36 17° 266° (W) 18:20:06 145.980 - 146.000
CUTE 1.7 + AOD 2 21 Nov 18:17:32 18:21:43 80° 256° (WSW) 18:25:57 437.475
STARS 21 Nov 18:24:42 18:28:51 43° 289° (WNW) 18:32:59 437.465
ZACube-1 21 Nov 18:28:37 18:31:59 22° 69° (ENE) 18:35:18 437.345
UWE-3 21 Nov 18:38:19 18:42:41 56° 75° (ENE) 18:46:57 435.000/436.395/437.385
KAITUO 1B 21 Nov 18:44:39 18:44:47 10° 269° (W) 18:44:56 145.475/437.950
SEEDS 21 Nov 18:47:08 18:51:14 60° 260° (W) 18:55:22 437.485
AAUSAT CUBESAT 2 21 Nov 18:52:18 18:56:22 64° 75° (ENE) 19:00:29 437.432
CUTE-I 21 Nov 18:57:20 19:00:05 14° 270° (W) 19:02:50 437.470
XW-2A 21 Nov 19:05:05 19:08:23 67° 258° (WSW) 19:11:42 145.665 - 145.685
RS-15 21 Nov 19:06:44 19:19:05 77° 304° (WNW) 19:31:24 29.354- 29.394
NO-84 21 Nov 19:08:15 19:09:31 11° 10° (N) 19:10:48 435.350 FM
STRAND 1 21 Nov 19:09:04 19:14:05 52° 100° (E) 19:19:02 437.568
AO-73 21 Nov 19:18:14 19:22:32 71° 75° (ENE) 19:26:44 145.935
HO-68 21 Nov 19:18:30 19:24:42 31° 264° (W) 19:30:58 435.675
CUBEBUG 2 21 Nov 19:19:26 19:23:27 29° 264° (W) 19:27:22 437.445
FO-29 21 Nov 19:28:26 19:34:57 28° 91° (E) 19:41:05 435.910
nSIGHT-1 21 Nov 19:31:17 19:33:54 23° 133° (SE) 19:36:30 .
Oscar 11 21 Nov 19:34:00 19:38:16 71° 76° (ENE) 19:42:34 .
ZACube-1 21 Nov 20:04:17 20:08:06 30° 264° (W) 20:11:52 437.345
EO-88 21 Nov 20:15:11 20:17:37 17° 68° (ENE) 20:20:02 145.990 - 145.960
ISS 21 Nov 20:16:27 20:19:39 55° 139° (SE) 20:22:52 437.550
Max Valier Satellite 21 Nov 20:17:29 20:20:33 26° 71° (ENE) 20:23:38 145.860
UWE-3 21 Nov 20:17:29 20:19:25 13° 269° (W) 20:21:20 435.000/436.395/437.385
NO-84 21 Nov 20:44:29 20:48:06 26° 30° (NNE) 20:51:44 435.350 FM
STRAND 1 21 Nov 20:49:19 20:52:50 19° 297° (WNW) 20:56:20 437.568
DELFI C3 21 Nov 20:52:33 20:56:29 71° 259° (WSW) 21:00:28 145.870
nSIGHT-1 21 Nov 21:06:58 21:09:59 37° 329° (NNW) 21:13:01 .
FO-29 21 Nov 21:12:38 21:20:20 60° 290° (WNW) 21:27:33 435.910
RS-15 21 Nov 21:23:41 21:33:58 29° 331° (NNW) 21:44:07 29.354- 29.394
SO-50 21 Nov 21:32:56 21:37:24 85° 303° (WNW) 21:41:55 436.795
EO-88 21 Nov 21:47:54 21:51:01 27° 263° (W) 21:54:10 145.990 - 145.960
UNISAT 6 21 Nov 21:50:40 21:54:58 90° 106° (ESE) 21:59:13 437.425
O/OREOS (USA 219) 21 Nov 21:51:00 21:54:10 18° 56° (NE) 21:57:19 437.305
Max Valier Satellite 21 Nov 21:51:49 21:54:21 18° 266° (W) 21:56:55 145.860
ISS 21 Nov 21:53:40 21:56:19 22° 336° (NNW) 21:58:59 437.550
TIGRISAT 21 Nov 21:54:50 21:59:07 89° 303° (WNW) 22:03:22 435.000
LO-87 21 Nov 22:09:32 22:13:05 57° 75° (ENE) 22:16:38 145.935 - 145.965
NO-84 21 Nov 22:21:31 22:25:43 56° 228° (SW) 22:29:50 435.350 FM
ESTCUBE 1 21 Nov 22:27:49 22:32:16 69° 75° (ENE) 22:36:45 437.505/2401.250
PRISM 21 Nov 22:37:36 22:41:48 81° 284° (WNW) 22:45:56 437.425
AIST 2D 21 Nov 22:40:11 22:43:21 30° 97° (E) 22:46:30 435.315
PCSat 21 Nov 22:43:21 22:47:03 19° 105° (ESE) 22:50:44 145.827
nSIGHT-1 21 Nov 22:45:27 22:46:55 12° 349° (NNW) 22:48:24 .
VELOX 1 21 Nov 22:46:50 22:49:48 18° 65° (ENE) 22:52:46 145.980
DUCHIFAT 1 21 Nov 22:59:13 23:01:09 13° 92° (E) 23:03:04 145.980
FO-29 21 Nov 23:00:40 23:03:40 13° 309° (NW) 23:06:40 435.910
EO-79 21 Nov 23:06:22 23:09:35 21° 94° (E) 23:12:46 145.935-145.965
NANOSAT C BR1 21 Nov 23:09:13 23:12:18 20° 94° (E) 23:15:23 145.865
SO-50 21 Nov 23:16:31 23:18:33 13° 321° (NW) 23:20:36 436.795
POLYITAN 1 21 Nov 23:21:28 23:25:13 31° 97° (E) 23:28:55 437.675
O/OREOS (USA 219) 21 Nov 23:29:29 23:33:49 45° 254° (WSW) 23:38:06 437.305
DX 1 21 Nov 23:31:24 23:33:05 12° 62° (ENE) 23:34:48 434.975-435.025
ISS 21 Nov 23:32:42 23:33:45 11° 356° (N) 23:34:47 437.550
SPROUT 21 Nov 23:36:56 23:41:13 86° 252° (WSW) 23:45:31 437.525
RS-15 21 Nov 23:43:40 23:52:12 21° 7° (N) 00:00:29 29.354- 29.394
QB50P2 21 Nov 23:44:31 23:48:43 66° 102° (ESE) 23:52:53 145.880/145.840
50 SAT 21 Nov 23:46:17 23:47:52 13° 67° (ENE) 23:49:25 437.505
BUGSAT 1 21 Nov 23:49:58 23:50:38 10° 90° (E) 23:51:19 437.445
ESTCUBE 1 22 Nov 00:08:48 00:09:31 10° 271° (W) 00:10:13 437.505/2401.250
UKube-1 22 Nov 00:10:15 00:13:21 20° 66° (ENE) 00:16:27 .
AIST 2D 22 Nov 00:14:11 00:16:14 15° 292° (WNW) 00:18:17 435.315
Oscar 19 22 Nov 00:20:50 00:23:59 16° 92° (E) 00:27:07 437.125/150
VELOX 1 22 Nov 00:21:40 00:25:53 43° 261° (W) 00:30:08 145.980
nSIGHT-1 22 Nov 00:23:01 00:24:16 12° 9° (N) 00:25:32 .
PCSat 22 Nov 00:24:36 00:29:55 58° 302° (WNW) 00:35:18 145.827
DUCHIFAT 1 22 Nov 00:33:03 00:37:04 48° 287° (WNW) 00:41:03 145.980
EO-79 22 Nov 00:41:40 00:45:20 30° 290° (WNW) 00:49:00 145.935-145.965
NANOSAT C BR1 22 Nov 00:44:20 00:48:02 31° 290° (WNW) 00:51:44 145.865
Gurwin Techsat 1B 22 Nov 00:51:35 00:55:47 23° 94° (E) 00:59:57 435.225
POLYITAN 1 22 Nov 00:57:38 01:00:47 21° 293° (WNW) 01:03:55 437.675
DX 1 22 Nov 01:04:22 01:08:42 65° 258° (WSW) 01:13:04 434.975-435.025
ISS 22 Nov 01:09:14 01:11:18 16° 17° (NNE) 01:13:22 437.550
50 SAT 22 Nov 01:16:48 01:19:40 29° 262° (W) 01:22:32 437.505
BUGSAT 1 22 Nov 01:22:23 01:26:20 55° 286° (WNW) 01:30:14 437.445
QB50P2 22 Nov 01:22:51 01:23:55 11° 297° (WNW) 01:25:00 145.880/145.840
BEESAT 22 Nov 01:23:34 01:26:48 18° 64° (ENE) 01:30:03 436.000
ITUPSAT 1 22 Nov 01:33:20 01:37:00 22° 66° (ENE) 01:40:40 437.325
MOZHAYETS 4 22 Nov 01:37:28 01:41:25 30° 69° (ENE) 01:45:23
UKube-1 22 Nov 01:45:06 01:49:05 36° 262° (W) 01:53:07 .
BEESAT 3 22 Nov 01:49:29 01:53:13 39° 116° (ESE) 01:56:58 437.485
CUBESAT XI-V 22 Nov 01:54:51 01:55:34 10° 61° (ENE) 01:56:17 437.345
RS-15 22 Nov 01:58:14 02:09:20 41° 40° (NE) 02:19:51 29.354- 29.394
nSIGHT-1 22 Nov 01:58:22 02:01:17 31° 29° (NNE) 02:04:10 .
Oscar 19 22 Nov 01:58:35 02:03:39 59° 288° (WNW) 02:08:43 437.125/150
AO-7 22 Nov 02:09:38 02:15:42 22° 93° (E) 02:21:44 .
PCSat 22 Nov 02:13:09 02:14:31 11° 323° (NW) 02:15:53 145.827
ITAMSAT 1 22 Nov 02:17:04 02:18:02 10° 89° (E) 02:19:00 435.822/435.867
M-CUBED/EXP-1 PRIME 22 Nov 02:28:28 02:32:52 45° 104° (ESE) 02:37:19 437.505
Gurwin Techsat 1B 22 Nov 02:30:52 02:35:51 43° 290° (WNW) 02:40:51 435.225
ISS 22 Nov 02:45:02 02:48:17 65° 35° (NE) 02:51:31 437.550
AO-85 22 Nov 02:51:24 02:54:02 18° 110° (ESE) 02:56:42 145.980
BEESAT 22 Nov 02:59:35 03:04:11 48° 260° (W) 03:08:49 436.000
BEESAT 2 22 Nov 03:02:46 03:06:45 73° 119° (ESE) 03:10:48 435.950
ITUPSAT 1 22 Nov 03:10:07 03:14:33 38° 261° (W) 03:19:02 437.325
MOZHAYETS 4 22 Nov 03:14:46 03:18:32 25° 265° (W) 03:22:19
KKS-1 22 Nov 03:23:26 03:26:47 21° 66° (ENE) 03:30:09 437.445
CUBESAT XI-V 22 Nov 03:27:38 03:32:12 83° 257° (WSW) 03:36:51 437.345
BEESAT 3 22 Nov 03:27:55 03:30:54 20° 313° (NW) 03:33:53 437.485
nSIGHT-1 22 Nov 03:34:39 03:37:28 28° 225° (SW) 03:40:15 .
STARS 22 Nov 03:45:58 03:48:26 15° 63° (ENE) 03:50:54 437.465
ITAMSAT 1 22 Nov 03:52:53 03:58:07 85° 285° (WNW) 04:03:18 435.822/435.867
AO-7 22 Nov 04:00:50 04:09:11 78° 291° (WNW) 04:17:32 .
M-CUBED/EXP-1 PRIME 22 Nov 04:03:34 04:06:54 20° 299° (WNW) 04:10:17 437.505
DOVE 4 22 Nov 04:08:28 04:12:43 26° 93° (E) 04:16:47 437.250
RS-15 22 Nov 04:10:57 04:22:35 68° 245° (WSW) 04:33:34 29.354- 29.394
ISS 22 Nov 04:22:51 04:24:23 13° 231° (SW) 04:25:53 437.550
SO-50 22 Nov 04:26:18 04:27:53 12° 37° (NE) 04:29:29 436.795
AO-85 22 Nov 04:30:29 04:34:05 36° 308° (NW) 04:37:52 145.980
YUBILEINY 22 Nov 04:32:13 04:40:11 41° 87° (E) 04:48:13 435.215
BEESAT 2 22 Nov 04:42:56 04:44:57 13° 318° (NW) 04:46:58 435.950
XW-2D 22 Nov 04:57:26 04:59:08 13° 92° (E) 05:00:49 145.860 - 145.880
KKS-1 22 Nov 04:58:58 05:03:05 36° 262° (W) 05:07:14 437.445
XW-2B 22 Nov 05:11:28 05:14:07 18° 94° (E) 05:16:47 145.730 - 145.750
STARS 22 Nov 05:19:59 05:24:18 53° 260° (W) 05:28:40 437.465
NUDT-PHONESAT 22 Nov 05:22:10 05:24:33 16° 93° (E) 05:26:56 437.300
CUTE-I 22 Nov 05:32:21 05:36:59 29° 96° (E) 05:41:36 437.470
ITAMSAT 1 22 Nov 05:35:19 05:36:44 11° 302° (WNW) 05:38:08 435.822/435.867
XW-2C 22 Nov 05:36:23 05:39:57 37° 98° (E) 05:43:30 145.795 - 145.815
